Weather in Spalding

United Kingdom     52°47′32″N   0°08′38″E
temp.,
°C
wind,
m/s
gust,
m/s
humid.,
%
clouds,
%
prec.,
mm/h
press.,
hPa
HPBL,
m
5 may, wed
wed501:00+4w4993100 1.6 1004307
04:00+2wnw51192100 0.0 1005292
07:00+3wnw5109112 0.0 1006493
10:00+8wnw576163 0.0 10081317
13:00+9wnw5658100 0.3 10081642
16:00+9w4561100 0.8 10081259
19:00+7wnw4775100 1.6 1007361
22:00+3w488514 0.1 1008128
6 may, thu
thu601:00+1w348734 0.1 100863
04:000wsw3387100 0.0 100743
07:00+3sw3493100 0.4 1006303
10:00+5sw2381100 0.3 1005682
13:00+9wnw346129 1.4 10051426
16:00+10nw664582 0.5 10042236
19:00+7nw486860 1.3 1005304
22:00+2w479015 0.1 1008134
7 may, fri
fri701:00+2wnw49955 0.1 1009185
04:00+1wnw49965 0.0 1011175
07:00+3wnw410925 0.0 1013315
10:00+9nw457168 0.0 10141180
13:00+11nw355292 0.3 10151926
16:00+12w455335 1.0 10151764
19:00+10wsw246714 1.1 1015104
22:00+5sw227488 0.0 101610
8 may, sat
sat801:00+3ssw348798 0.0 101551
04:00+4sse3788100 0.0 1013166
07:00+5se51276100 0.0 1010414
10:00+6se81695100 3.4 1006783
13:00+8sse81697100 8.5 1001746
16:00+12ssw81596100 2.4 999733
19:00+12ssw81596100 3.8 999715
22:00+13ssw8169499 0.1 999703
9 may, sun
sun901:00+13ssw8159095 0.1 999868
04:00+11s7159353 0.0 998717
07:00+10s616933 0.0 997499
10:00+16s712720 0.0 995705
13:00+19s696123 0.0 9941346
16:00+19s81379100 0.6 9931465
19:00+14ssw71385100 1.6 994876
22:00+9ssw4129188 0.0 996352